EHI
0 0 0 0 0 0 0 0 0 0 0 0 0 0 0 0 0 0 2 7 13 13 11 10 9 6 5 6 6 3 1 1 1 0 0 0 0 0 0 0 0 0 0
0 0 0 0 0 0 0 0 0 0 0 0 0 0 0 0 0 0 1 4 9 12 12 12 9 7 6 7 9 7 4 3 2 1 1 1 0 0 0 0 0 0 0
2 2 1 0 0 0 0 0 0 0 0 0 0 0 0 0 0 0 0 1 4 7 11 12 10 8 7 9 10 10 8 6 4 3 3 2 1 0 0 0 0 0 0
5 4 3 1 1 1 1 1 0 0 0 0 0 0 0 0 0 0 0 0 0 2 6 9 11 10 9 10 10 9 8 7 6 5 4 3 2 1 1 1 1 0 0
6 6 4 3 2 2 2 2 1 0 0 0 0 0 0 0 0 0 0 0 0 0 1 4 8 10 11 12 11 9 7 6 6 5 5 4 4 3 3 2 2 1 0
6 6 4 3 3 3 3 3 2 1 1 0 0 0 0 0 0 0 0 0 0 0 0 1 3 6 9 11 11 9 6 5 4 4 5 6 6 5 4 3 2 2 1
7 7 5 4 2 1 2 3 3 2 1 0 0 0 0 0 0 0 0 0 0 0 0 0 1 2 4 6 7 7 7 6 4 3 5 6 6 5 4 2 1 1 1
8 8 8 5 2 1 1 1 2 3 2 0 0 0 0 0 0 0 0 0 0 0 0 1 2 2 1 2 3 5 7 7 5 4 4 5 4 4 3 2 0 0 1
10 10 9 7 3 1 0 0 1 3 2 1 0 0 0 0 0 0 0 0 0 0 0 1 2 2 1 0 1 3 7 8 6 6 5 4 2 2 2 2 0 0 0
12 11 10 8 6 3 2 1 1 2 3 3 1 0 0 0 0 0 0 0 0 0 0 0 1 2 2 1 1 3 6 7 7 7 6 5 3 2 1 1 0 0 0
11 11 11 10 9 7 6 4 3 3 4 4 2 1 0 0 0 0 0 0 0 0 0 0 1 2 3 3 3 5 7 7 6 5 5 5 5 4 3 1 1 1 1
8 9 10 11 10 10 9 9 7 5 5 6 4 3 2 2 1 1 1 0 0 0 0 1 1 3 3 4 4 7 8 6 4 4 4 4 5 6 5 4 3 3 2
6 8 11 12 11 11 11 10 10 8 7 7 6 5 5 5 4 3 2 1 1 0 0 1 1 2 3 3 4 6 6 4 3 2 2 3 4 4 5 5 4 4 3
7 9 11 11 11 10 10 10 10 9 8 8 8 8 9 8 6 5 4 3 2 1 0 1 1 1 2 2 3 3 2 1 1 1 1 1 2 3 3 3 3 3 2
11 9 9 10 10 10 9 9 10 9 8 9 10 10 10 9 8 6 5 4 3 2 1 1 1 1 1 1 1 1 0 0 0 0 0 0 1 1 1 1 1 1 1
14 12 9 9 10 11 10 9 9 8 8 9 10 10 9 9 8 7 6 5 4 3 2 1 1 0 0 0 0 0 0 0 0 0 0 0 0 0 0 0 0 0 0
16 15 13 11 12 12 11 9 8 7 7 8 8 6 6 7 8 7 6 5 5 4 3 2 1 0 0 0 0 0 0 0 0 0 0 0 0 0 0 0 0 0 0
16 16 14 14 15 15 13 11 9 8 8 7 6 4 3 4 5 6 6 5 5 4 4 3 1 0 0 0 1 0 0 0 0 0 0 0 0 0 0 0 0 0 0
18 18 16 15 17 18 17 14 13 12 11 8 5 4 4 3 4 5 5 5 5 6 6 5 3 1 0 0 0 0 0 0 0 0 0 0 0 0 0 0 0 0 0
22 21 20 19 20 19 16 15 14 14 14 11 7 5 6 5 4 4 4 5 6 6 6 6 5 3 1 1 1 1 1 1 0 0 0 0 0 0 0 0 0 0 0
25 26 24 23 21 17 12 10 11 12 13 11 7 5 5 4 3 2 2 3 4 6 6 6 6 5 4 3 3 3 3 2 1 0 0 0 0 0 0 0 0 0 0
27 27 26 23 21 16 8 5 7 9 10 10 6 4 4 2 1 1 1 1 2 3 5 5 6 6 6 5 4 3 4 3 2 0 0 0 0 0 0 0 0 0 0
25 25 23 21 20 15 7 4 5 8 9 9 8 6 4 2 1 1 1 0 0 1 2 3 3 4 5 5 4 3 3 3 1 0 0 0 0 0 0 0 0 0 0
21 20 20 20 19 15 7 3 4 7 9 9 9 8 5 3 2 3 3 1 0 0 0 1 1 2 3 2 2 3 3 2 1 0 0 0 0 0 0 0 0 0 0
17 17 18 18 17 13 7 3 2 5 9 9 9 8 5 3 2 2 3 2 1 0 0 0 0 1 1 0 1 2 2 2 1 0 0 0 0 0 0 1 1 1 0
16 17 16 15 15 13 8 2 2 5 9 9 8 6 3 2 1 1 1 2 1 0 0 0 0 0 0 0 0 1 1 1 0 0 0 0 1 1 1 2 2 2 1
Wind_Speed
4 4 3 3 3 3 3 3 2 3 3 3 3 4 3 4 3 3 4 11 12 12 13 14 13 13 13 12 12 12 12 11 11 10 10 10 10 10 10 10 9 9 9
4 4 4 3 3 3 3 3 4 3 3 2 3 3 3 4 4 4 4 7 12 13 13 13 13 13 13 13 12 13 13 12 12 11 11 11 10 11 11 10 10 10 9
6 5 4 4 3 4 4 3 2 1 2 2 2 2 3 4 4 4 4 3 5 11 13 13 13 13 13 13 13 13 13 13 12 12 12 11 11 11 11 11 11 11 10
6 5 4 4 4 3 3 3 2 2 1 1 1 1 2 2 4 4 4 4 4 4 9 13 13 13 14 14 14 14 14 13 13 13 12 12 12 12 12 12 12 11 11
7 5 4 4 4 3 3 4 3 2 2 2 2 2 2 2 3 4 4 5 5 5 4 9 13 14 15 15 14 15 14 14 14 14 14 14 14 13 12 12 12 11 11
6 5 4 4 4 3 3 3 3 2 2 2 2 1 2 2 2 3 5 5 5 6 6 6 6 9 14 14 14 15 15 15 14 15 15 15 14 13 12 12 12 12 11
6 5 4 4 4 4 4 4 3 3 2 2 1 1 2 2 2 3 3 3 5 6 6 6 5 4 5 11 13 13 14 15 15 15 14 14 14 13 13 13 13 12 12
6 6 5 4 4 3 3 4 3 2 2 2 3 1 1 3 3 2 2 3 4 3 4 7 6 6 4 3 6 13 14 15 14 14 13 13 14 14 14 14 13 12 12
6 5 6 5 5 4 4 4 4 4 3 2 2 3 3 3 2 3 2 2 2 2 3 3 5 6 6 5 5 9 12 12 13 13 12 12 12 13 14 14 13 13 12
5 5 6 6 5 4 4 4 4 3 4 2 2 2 3 3 2 2 3 2 2 2 3 3 4 5 5 5 6 8 10 11 12 12 12 12 11 11 12 13 14 14 13
4 5 5 5 5 4 5 4 4 4 3 3 3 2 2 1 2 2 2 2 2 2 2 3 3 3 4 5 4 7 10 11 11 11 11 11 10 10 11 12 12 13 13
3 4 5 5 5 4 5 4 4 4 4 3 3 3 2 2 3 3 3 2 2 2 2 1 2 3 3 4 6 8 8 9 8 9 9 9 9 9 9 10 10 11 11
3 4 4 4 4 4 5 4 4 4 4 4 4 3 3 3 3 3 2 2 2 2 1 1 2 2 2 2 3 6 7 8 8 7 7 7 7 7 7 8 9 8 9
4 5 5 5 5 5 5 4 4 4 4 4 4 3 2 3 3 3 3 3 1 1 1 2 1 2 2 2 3 4 3 6 6 7 7 6 6 6 6 6 6 6 6
4 5 5 5 5 5 5 4 3 4 4 4 4 4 3 2 2 3 3 3 4 2 2 2 2 2 2 2 3 3 3 4 5 6 6 6 6 6 5 5 5 4 5
5 5 5 5 5 5 4 4 3 4 4 4 3 3 3 3 2 2 2 2 3 4 3 3 3 2 2 2 4 3 3 4 5 6 6 6 6 6 5 5 5 5 5
5 5 6 6 6 5 5 4 4 4 4 4 3 4 4 3 3 2 2 2 2 3 4 3 2 1 2 2 2 2 2 3 3 5 6 6 6 6 6 5 5 4 4
5 5 5 5 5 5 5 5 6 5 5 5 5 4 4 3 4 3 2 3 3 3 4 4 2 1 2 3 2 2 2 2 2 4 6 7 6 6 6 6 5 5 4
4 4 4 5 5 5 5 5 5 5 6 6 6 5 5 4 4 3 3 3 3 3 2 3 3 2 1 1 1 1 2 1 2 3 5 5 6 6 6 6 6 5 5
4 4 3 4 5 4 4 5 5 5 5 5 5 5 5 6 6 5 4 4 3 2 2 2 2 2 1 1 2 2 2 2 2 2 3 3 4 6 6 6 6 6 5
4 3 3 3 2 3 4 4 4 4 4 4 4 4 5 6 6 5 4 4 4 3 3 3 2 2 2 2 2 2 3 2 2 2 2 2 2 3 4 5 7 7 7
3 3 2 3 3 3 3 5 5 4 4 4 4 3 4 4 5 5 5 6 6 5 5 4 3 4 4 4 3 3 2 2 3 2 3 3 3 3 4 4 6 7 7
3 3 2 2 3 4 4 5 6 4 3 4 4 3 3 2 2 2 3 4 4 6 7 6 5 6 5 5 4 4 4 4 4 3 3 3 3 4 4 4 6 7 7
3 3 3 3 3 3 4 5 5 4 3 3 4 4 4 2 2 3 3 2 3 3 4 4 5 5 5 5 5 6 5 4 2 2 3 3 3 3 3 3 5 7 7
2 3 3 2 3 3 3 4 5 3 3 3 3 3 4 3 3 4 3 2 2 3 3 3 3 4 5 5 5 2 2 2 2 3 2 3 2 2 2 3 4 7 7
3 2 2 2 3 2 3 4 5 3 3 2 2 2 3 3 3 4 4 3 3 4 3 2 2 3 3 3 5 5 5 4 2 3 3 3 2 2 2 2 2 3 4
Wind_Direction
154 153 155 158 164 163 170 182 195 198 205 206 212 206 202 198 190 187 196 197 196 198 200 199 197 199 198 200 202 202 202 204 203 201 201 203 205 206 204 203 201 202 203
154 154 156 162 171 176 182 188 193 194 203 201 214 209 200 196 196 195 196 200 202 203 203 203 202 203 204 206 207 208 208 210 208 207 207 209 210 209 208 210 211 211 210
163 161 162 173 181 178 178 181 187 182 205 205 222 217 198 201 196 197 196 196 203 208 207 208 208 209 211 213 214 215 215 215 213 211 211 211 210 211 212 216 217 217 216
169 163 168 181 185 172 169 170 175 175 206 211 227 240 219 209 203 202 200 199 197 206 212 213 214 215 217 218 220 218 218 217 216 215 213 214 215 215 216 220 221 221 219
172 166 172 179 177 172 180 188 171 172 190 206 223 233 231 221 212 209 205 203 201 206 208 218 220 220 222 223 224 222 219 218 219 219 218 219 221 221 221 222 222 221 220
170 165 171 176 172 172 184 184 173 173 185 192 215 239 252 243 221 212 212 211 207 209 209 214 217 225 226 225 225 225 223 222 222 222 222 222 223 221 219 219 220 222 221
169 169 176 176 176 180 187 180 171 171 194 170 108 335 324 285 248 230 216 212 216 215 206 211 213 214 225 228 227 225 226 227 225 224 222 221 222 220 218 220 222 222 224
171 178 178 181 179 174 180 180 170 166 197 171 151 126 339 330 313 261 233 218 223 216 211 212 208 207 217 221 226 228 231 229 226 225 223 222 222 221 220 221 220 222 225
182 182 182 180 179 175 183 190 181 172 186 202 172 156 166 226 283 306 272 243 230 219 219 212 203 206 212 215 222 228 229 225 226 228 227 226 224 223 221 219 220 223 224
181 184 180 179 180 179 185 195 185 175 170 192 211 203 187 174 175 287 308 281 252 229 219 218 208 208 210 213 214 213 218 222 225 227 230 230 227 225 224 222 224 225 226
186 187 183 181 185 188 191 195 182 181 180 182 192 196 199 195 181 181 256 290 299 264 229 214 217 214 213 213 212 212 212 217 221 223 227 228 228 229 226 225 228 229 229
191 190 184 185 191 189 191 194 189 188 189 186 191 190 183 185 200 191 219 246 263 275 256 220 221 221 214 209 215 208 202 203 208 214 220 223 224 227 224 224 230 233 233
195 203 193 190 192 193 192 188 187 193 191 188 196 203 203 210 190 174 180 218 247 275 278 252 227 221 207 191 208 198 200 198 202 208 213 216 219 220 221 224 228 232 235
196 194 193 193 193 192 193 186 189 195 193 199 208 204 210 224 204 188 181 177 218 283 277 257 258 214 196 184 198 192 206 204 204 208 209 210 209 211 213 215 219 227 232
192 189 193 194 196 196 195 187 197 203 196 204 212 208 213 226 221 208 192 177 175 214 260 251 242 231 199 186 187 186 199 201 203 209 209 205 201 201 202 204 210 218 218
194 186 194 194 194 195 197 194 202 206 200 212 210 208 217 218 220 211 203 199 186 189 226 240 230 222 204 202 195 192 197 195 204 204 203 199 199 196 192 197 205 208 205
192 197 200 197 197 198 195 192 205 200 205 219 222 215 226 218 214 220 208 197 202 191 219 252 235 219 191 197 195 198 198 193 200 204 200 196 196 194 190 190 191 194 196
201 202 199 192 195 198 198 197 204 205 206 216 223 222 233 225 219 223 211 217 218 207 201 231 244 224 212 200 194 197 203 200 198 199 199 201 202 200 198 197 197 200 201
203 204 198 197 202 204 201 205 206 207 208 213 213 215 221 210 218 219 217 223 224 223 204 204 234 223 219 191 167 196 210 226 209 199 199 208 209 206 202 202 204 206 205
191 202 204 206 209 208 203 209 211 212 213 215 214 213 212 209 214 214 219 223 219 211 205 206 228 224 218 206 161 188 227 238 228 200 198 204 208 210 209 210 211 212 212
189 191 197 206 209 210 216 212 218 217 212 218 218 216 218 212 208 209 215 213 207 205 204 207 221 216 212 187 208 205 209 223 242 206 200 215 205 213 218 220 218 218 215
184 170 183 200 206 222 219 210 209 213 204 205 215 226 227 219 217 216 219 213 202 200 204 206 214 215 221 212 206 199 194 194 248 221 192 228 199 218 221 219 220 216 215
176 173 194 204 220 227 210 202 208 202 202 205 211 217 221 222 207 224 226 226 229 223 208 202 211 221 219 212 195 204 208 207 222 213 176 231 213 226 227 223 218 217 219
172 197 210 230 232 229 206 198 200 199 207 218 213 204 200 206 205 191 198 218 242 246 232 220 219 228 225 212 198 203 209 218 243 227 173 214 224 228 231 223 216 214 218
189 202 181 192 214 234 205 197 197 194 209 226 223 208 194 201 208 180 174 200 247 269 258 240 235 233 227 214 193 170 181 184 240 245 201 197 221 229 238 236 227 217 219
181 185 172 183 197 226 224 209 199 189 201 220 225 207 192 190 195 178 184 197 230 255 267 271 263 266 246 235 212 198 196 200 217 242 215 189 200 177 250 250 229 218 217